Regional Weather Roundup
Issued by NWS

Home | Current Version | Previous Version | Graphics & Text | Print | Product List | Glossary On
Versions: 1 2 3 4 5 6 7 8 9 10 11 12 13 14 15 16 17 18 19 20 21 22 23 24 25 26 27 28 29 30 31 32 33 34 35 36 37 38 39 40 41 42 43 44 45 46 47 48 49 50
000
ASUS43 KMPX 242101
RWRMN
WEATHER ROUNDUP FOR MINNESOTA
NATIONAL WEATHER SERVICE TWIN CITIES/CHANHASSEN MN
300 PM CST TUE JAN 24 2017


NOTE: "FAIR" INDICATES FEW OR NO CLOUDS BELOW 12,000 FEET WITH NO
SIGNIFICANT WEATHER AND/OR OBSTRUCTIONS TO VISIBILITY. N/A MEANS
CURRENT SKY AND/OR WEATHER CONDITIONS ARE NOT AVAILABLE.

MNZ060>063-068>070-242200-
   Twin Cities Metro

CITY           SKY/WX    TMP DP  RH WIND       PRES   REMARKS
TWIN CITIES    CLOUDY    32  26  78 E9        29.81F WCI  24
ST PAUL        CLOUDY    32  28  85 E7        29.83S WCI  26
CRYSTAL        CLOUDY    32  24  72 VRB6      29.80F WCI  26
BLAINE         CLOUDY    34  30  86 E9        29.81F WCI  26
LAKEVILLE      CLOUDY    30  28  93 E5        29.81R WCI  25
EDEN PRAIRIE   CLOUDY    33  26  75 NE9       29.80S WCI  25
SOUTH ST PAUL  CLOUDY    32  28  86 NE6       29.81F WCI  26
LAKE ELMO      CLOUDY    32  30  93 E7        29.82S WCI  26
$$
MNZ001>005-007-008-013>017-022>024-027-028-242200-
   Northwest Minnesota

CITY           SKY/WX    TMP DP  RH WIND       PRES   REMARKS
BEMIDJI        CLOUDY    27  23  84 W7        29.82S WCI  19
HALLOCK        CLOUDY    28  25  86 NW5       29.85R WCI  23
ROSEAU         PTSUNNY   28  23  80 SW5       29.83S WCI  23
WARROAD        CLOUDY    27  23  86 SW5       29.84R WCI  21
THIEF RVR FALL CLOUDY    26  22  84 CALM      29.85S
CROOKSTON      CLOUDY    27  21  80 CALM      29.87S
FOSSTON        CLOUDY    25  19  80 NW3       29.84S
DETROIT LAKES  CLOUDY    28  27  93 NW5       29.83S WCI  23
PARK RAPIDS    CLOUDY    30  23  75 CALM      29.80S
MAHNOMEN       CLOUDY    25  21  85 W5        29.84R WCI  20
$$
MNZ006-009>011-018-025>026-242200-
   North Central Minnesota

CITY           SKY/WX    TMP DP  RH WIND       PRES   REMARKS
BAUDETTE       CLOUDY    26  20  77 CALM      29.83R
FLAG ISLAND    CLOUDY    27  23  86 SW7       29.82R WCI  19
INTL FALLS     CLOUDY    27  21  78 W8        29.83R WCI  19
WASKISH        CLOUDY    25  21  86 W7        29.84R WCI  17
BIG FORK       CLOUDY    30  23  74 CALM      29.82R
LONGVILLE      CLOUDY    30  23  74 NW5       29.82R WCI  25
GRAND RAPIDS   CLOUDY    30  24  78 N6        29.83S WCI  24
CRANE LAKE     CLOUDY    27  23  86 CALM      29.84S
ORR            CLOUDY    28  21  74 CALM      29.80R
COOK           CLOUDY    28  25  86 W5        29.82R WCI  23
WALKER         CLOUDY    29  24  81 CALM      29.82S
$$
MNZ012-019>021-037-242200-
   Northeast Minnesota

CITY           SKY/WX    TMP DP  RH WIND       PRES   REMARKS
DULUTH         CLOUDY    31  25  78 NE7       29.81R WCI  24
ELY            CLOUDY    28  27  93 CALM      29.80S
HIBBING        CLOUDY    28  25  88 NW3       29.81R
EVELETH        CLOUDY    30  25  81 CALM      29.82S
DULUTH HARBOR  CLOUDY    34  28  80 CALM      29.86R
TWO HARBORS    CLOUDY    36  28  75 CALM      29.81R
SILVER BAY     CLOUDY    34  28  80 NW3       29.79S
GRAND MARAIS     N/A     41  30  65 VRB3      29.80F
G MARAIS ARPRT CLOUDY    30  25  80 N3        29.77S
$$
MNZ029>031-032-039>041-046>048-054>057-064-242200-
   West Central Minnesota

CITY           SKY/WX    TMP DP  RH WIND       PRES   REMARKS
FERGUS FALLS   CLOUDY    30  25  80 N5        29.86F WCI  25
WHEATON        CLOUDY    30  27  86 N8        29.83S WCI  23
MORRIS         CLOUDY    34  28  80 NE6       29.79S WCI  29
ALEXANDRIA     CLOUDY    32  26  78 N9        29.78F WCI  24
ELBOW LAKE     CLOUDY    31  27  86 N6        29.81F FOG     WCI  25
WADENA         CLOUDY    28  25  86 CALM      29.82S
GLENWOOD       CLOUDY    30  27  86 NE7       29.79F WCI  23
APPLETON       CLOUDY    34  27  75 NE8       29.80S WCI  27
MADISON        CLOUDY    34  28  80 NE7       29.79S WCI  28
WILLMAR        CLOUDY    32  28  86 CALM      29.80F
$$
MNZ033>034-036-042>043-049>051-058-059-242200-
   Central Minnesota

CITY           SKY/WX    TMP DP  RH WIND       PRES   REMARKS
ST CLOUD       CLOUDY    32  26  78 NE7       29.80F WCI  26
SAUK CENTRE    CLOUDY    32  26  78 NE9       29.79F WCI  24
PAYNESVILLE    CLOUDY    32  29  90 E6        29.80S WCI  26
AITKIN         CLOUDY    34  23  64 CALM      29.82R
PINE RIVER     CLOUDY    30  25  80 N3        29.86R
BRAINERD       CLOUDY    29  24  82 SW5       29.85R WCI  24
STAPLES        CLOUDY    30  25  80 CALM      29.83R
LONG PRAIRIE   CLOUDY    32  27  80 NW7       29.80F HAZE    WCI  26
LITTLE FALLS   CLOUDY    32  27  80 NE3       29.82F
LITCHFIELD     CLOUDY    32  27  80 E5        29.80S WCI  27
BUFFALO        CLOUDY    31  26  80 NE8       29.82S WCI  24
MAPLE LAKE     CLOUDY    32  28  86 E8        29.82S WCI  25
HUTCHINSON     CLOUDY    32  28  85 NE8       29.81S WCI  24
$$
MNZ037-044-045-052-053-242200-
   East Central Minnesota

CITY           SKY/WX    TMP DP  RH WIND       PRES   REMARKS
PRINCETON      CLOUDY    34  27  75 N3        29.82S
MORA           CLOUDY    32  27  80 CALM      29.84F
CAMBRIDGE      CLOUDY    34  25  69 NE6       29.81S WCI  29
RUSH CITY      CLOUDY    32  27  80 CALM      29.83F
MOOSE LAKE     CLOUDY    32  27  80 CALM      29.82R
HINCKLEY       CLOUDY    32  28  86 CALM      29.83F
CLOQUET        CLOUDY    30  25  80 CALM      29.81S
MCGREGOR       CLOUDY    32  27  80 NW3       29.83R
$$
MNZ071>073-080-081-089-090-097-098-242200-
   Southwest Minnesota

CITY           SKY/WX    TMP DP  RH WIND       PRES   REMARKS
MONTEVIDEO     CLOUDY    30  27  86 SE9       29.81S WCI  22
GRANITE FALLS  CLOUDY    32  28  86 NE7       29.80S WCI  26
CANBY          CLOUDY    31  28  90 CALM      29.79S
MARSHALL       CLOUDY    30  27  88 E12       29.77F WCI  20
REDWOOD FALLS  CLOUDY    31  25  78 E9        29.78F WCI  23
OLIVIA         CLOUDY    32  28  86 E7        29.79S WCI  26
PIPESTONE      FOG       28  28 100 E9        29.70F VSB 1/2 WCI  20
WINDOM         CLOUDY    30  28  93 E13       29.72F FOG     WCI  20
WORTHINGTON    CLOUDY    29  28  96 E16       29.70F WCI  17
JACKSON        CLOUDY    28  28 100 E14       29.72F WCI  17
TRACY          CLOUDY    31  29  95 E12       29.76F FOG     WCI  21
SLAYTON        CLOUDY    28  28  98 E15       29.73F FOG     WCI  17
$$
MNZ065>067-074>077-082>085-091>093-242200-
   South Central Minnesota

CITY           SKY/WX    TMP DP  RH WIND       PRES   REMARKS
MANKATO        CLOUDY    31  28  89 E9        29.80S FOG     WCI  23
NEW ULM        CLOUDY    30  27  86 E5        29.79S FOG     WCI  25
ST JAMES       CLOUDY    30  28  93 E9        29.78F WCI  22
FAIRMONT       CLOUDY    31  28  89 E13       29.74F WCI  21
GLENCOE        CLOUDY    32  29  89 E7        29.80R WCI  26
OWATONNA       CLOUDY    30  27  86 E6        29.79S WCI  24
WASECA         CLOUDY    32  30  93 E7        29.79F FOG     WCI  26
ALBERT LEA     CLOUDY    30  28  93 E8        29.77F FOG     WCI  23
$$
MNZ078>079-086>088-094>096-242200-
   Southeast Minnesota

CITY           SKY/WX    TMP DP  RH WIND       PRES   REMARKS
ROCHESTER      CLOUDY    29  27  92 E5        29.78S WCI  24
RED WING       CLOUDY    36  27  69 E7        29.80S
STANTON        CLOUDY    33  29  85 E3        29.79S
DODGE CENTER   CLOUDY    30  27  86 MISG      29.78S
WINONA         CLOUDY    34  30  86 SE5       29.82S WCI  30
AUSTIN         CLOUDY    30  27  86 E7        29.77F WCI  23
PRESTON        CLOUDY    32  27  84 E5        29.78F WCI  27
$$
ABBREVIATIONS USED IN REMARKS
   TC - TEMPERATURES IN CELSIUS
  WCI - WIND CHILL INDEX
   HX - HEAT INDEX
  VSB - VISIBILITY
$$




USA.gov is the U.S. government's official web portal to all federal, state and local government web resources and services.